This is the latest recevied weather packets stored in our database for station/object EB2EMZ-15. If no packets are shown the sender has not sent any weather packets the latest 10 day(s).
| Time | Temp. | Humidity | Pressure | Rain* | Wind** | Luminosity | Snow |
|---|---|---|---|---|---|---|---|
| 1777740023 | 19.44° C | 80% | 992.6 hPa | 0 mm | - | - | - |
| 1777739721 | 19.44° C | 80% | 992.7 hPa | 0 mm | - | - | - |
| 1777739424 | 19.44° C | 80% | 992.8 hPa | 0 mm | - | - | - |
| 1777739121 | 19.44° C | 80% | 992.8 hPa | 0 mm | - | - | - |
| 1777738823 | 19.44° C | 80% | 992.7 hPa | 0 mm | - | - | - |
| 1777738521 | 19.44° C | 79% | 992.8 hPa | 0 mm | - | - | - |
| 1777738224 | 18.89° C | 79% | 992.7 hPa | 0 mm | - | - | - |
| 1777737922 | 18.89° C | 79% | 992.8 hPa | 0 mm | - | - | - |
| 1777737621 | 19.44° C | 79% | 992.7 hPa | 0 mm | - | - | - |
| 1777737321 | 19.44° C | 79% | 992.3 hPa | 0 mm | - | - | - |
| 1777737027 | 19.44° C | 78% | 992.6 hPa | 0 mm | - | - | - |
| 1777736721 | 19.44° C | 78% | 992.6 hPa | 0 mm | - | - | - |
| 1777736424 | 19.44° C | 78% | 992.7 hPa | 0 mm | - | - | - |
| 1777736121 | 19.44° C | 78% | 992.8 hPa | 0 mm | - | - | - |
| 1777735824 | 18.89° C | 79% | 993 hPa | 0 mm | - | - | - |
| 1777735520 | 18.89° C | 79% | 993.1 hPa | 0 mm | - | - | - |
| 1777735223 | 18.89° C | 79% | 993.1 hPa | 0 mm | - | - | - |
| 1777734921 | 18.33° C | 79% | 993.2 hPa | 0 mm | - | - | - |
| 1777734623 | 17.78° C | 78% | 993.2 hPa | 0 mm | - | - | - |
| 1777734321 | 17.78° C | 78% | 993.3 hPa | 0 mm | - | - | - |
| 1777734021 | 17.78° C | 77% | 993.3 hPa | 0 mm | - | - | - |
| 1777733721 | 18.33° C | 76% | 993.3 hPa | 0 mm | - | - | - |
| 1777733423 | 18.33° C | 74% | 993.9 hPa | 0 mm | - | - | - |
| 1777733121 | 19.44° C | 73% | 994.1 hPa | 0 mm | - | - | - |
| 1777732823 | 20° C | 72% | 994.5 hPa | 0 mm | - | - | - |
* Rain latest hour (hover to see other rain measurements)
** Current wind speed in m/s (hover to see current wind gust speed)